tititudorancea.com
Ararat Weather - Ararat,Victoria,Australia
 
Daily Summary for September 24, 2014 Units:  Metric    English   Both
« Previous Day
Next Day »
Daily Weekly Monthly Yearly Custom
  Current: High: Low: Average:
Temperature: 23.9 °C 23.9 °C 12.7 °C 16.2 °C
Dew Point: 12.3 °C 12.9 °C 7.2 °C 9.3 °C
Humidity: 48% 79% 48% 64%
Wind Speed: 2.6km/h 15.8km/h 0km/h 4.7km/h
Wind Gust: 13.4km/h 24.5km/h - -
WindNorth - - East
Pressure: 1012.8 hPa 1017.5 hPa 1012.8 hPa -
Precipitation: 0 mm      
Historical Graphs
 
 
Ararat weather Find more about Weather in Ararat, AU


 




 


Tabular Data for September 24, 2014
Time Temperature Dew Point Pressure Wind Wind Speed Wind Gust Humidity Rainfall Rate (Hourly)
00:00 15 °C 8.5 °C 1017.5 hPa NE 8.7 km/h 14.8 km/h 65% 0 mm
00:01 15 °C 8.5 °C 1017.5 hPa NE 6.1 km/h 14.8 km/h 65% 0 mm
00:02 15.1 °C 8.6 °C 1017.5 hPa NE 6.1 km/h 14.8 km/h 65% 0 mm
00:04 15 °C 8.5 °C 1017.5 hPa NE 8.7 km/h 15.8 km/h 65% 0 mm
00:05 15 °C 8.5 °C 1017.2 hPa NE 5 km/h 15.8 km/h 65% 0 mm
00:06 15 °C 8.5 °C 1017.5 hPa NE 7.2 km/h 15.8 km/h 65% 0 mm
00:08 15 °C 8.5 °C 1017.5 hPa NE 8.7 km/h 15.8 km/h 65% 0 mm
00:10 15 °C 8.5 °C 1017.5 hPa NE 8.7 km/h 17.2 km/h 65% 0 mm
00:12 15.1 °C 8.6 °C 1017.2 hPa NE 7.2 km/h 17.2 km/h 65% 0 mm
00:13 15.1 °C 8.6 °C 1017.5 hPa NE 6.1 km/h 17.2 km/h 65% 0 mm
00:15 15.1 °C 8.3 °C 1017.2 hPa NE 9.7 km/h 17.2 km/h 64% 0 mm
00:16 15.1 °C 8.6 °C 1017.2 hPa NE 11.1 km/h 18.3 km/h 65% 0 mm
00:17 15.1 °C 8.3 °C 1017.5 hPa NE 6.1 km/h 18.3 km/h 64% 0 mm
00:18 15.1 °C 8.3 °C 1017.5 hPa NE 5 km/h 18.3 km/h 64% 0 mm
00:20 15.1 °C 8.3 °C 1017.2 hPa NE 9.7 km/h 18.3 km/h 64% 0 mm
00:21 15.1 °C 8.3 °C 1017.2 hPa NE 11.1 km/h 18.3 km/h 64% 0 mm
00:22 15.1 °C 8.3 °C 1017.2 hPa NE 11.1 km/h 18.3 km/h 64% 0 mm
00:23 15.2 °C 8.4 °C 1017.2 hPa NE 5 km/h 18.3 km/h 64% 0 mm
00:25 15.2 °C 8.4 °C 1017.2 hPa NE 11.1 km/h 18.3 km/h 64% 0 mm
00:27 15.2 °C 8.4 °C 1016.8 hPa NE 6.1 km/h 17.2 km/h 64% 0 mm
00:28 15.2 °C 8.4 °C 1017.2 hPa NE 8.7 km/h 17.2 km/h 64% 0 mm
00:29 15.2 °C 8.4 °C 1017.2 hPa NE 8.7 km/h 17.2 km/h 64% 0 mm
00:30 15.2 °C 8.4 °C 1017.2 hPa NE 9.7 km/h 17.2 km/h 64% 0 mm
00:31 15.2 °C 8.4 °C 1017.2 hPa NE 7.2 km/h 17.2 km/h 64% 0 mm
00:32 15.2 °C 8.4 °C 1017.2 hPa NE 9.7 km/h 17.2 km/h 64% 0 mm
00:33 15.2 °C 8.4 °C 1017.2 hPa NE 8.7 km/h 17.2 km/h 64% 0 mm
00:34 15.2 °C 8.4 °C 1016.8 hPa NE 11.1 km/h 24.5 km/h 64% 0 mm
00:36 15.3 °C 8.5 °C 1016.8 hPa NE 11.1 km/h 24.5 km/h 64% 0 mm
00:37 15.3 °C 8.5 °C 1017.2 hPa NE 12.2 km/h 24.5 km/h 64% 0 mm
00:38 15.4 °C 8.6 °C 1016.8 hPa NE 12.2 km/h 24.5 km/h 64% 0 mm
00:39 15.4 °C 8.6 °C 1016.8 hPa NE 6.1 km/h 24.5 km/h 64% 0 mm
00:42 15.4 °C 8.4 °C 1016.8 hPa NE 12.2 km/h 24.5 km/h 63% 0 mm
00:44 15.5 °C 8.5 °C 1016.8 hPa ENE 9.7 km/h 24.5 km/h 63% 0 mm
00:47 15.5 °C 8.5 °C 1016.8 hPa NE 8.7 km/h 23.3 km/h 63% 0 mm
00:48 15.5 °C 8.5 °C 1016.8 hPa NE 12.2 km/h 23.3 km/h 63% 0 mm
00:49 15.5 °C 8.5 °C 1016.8 hPa NE 12.2 km/h 24.5 km/h 63% 0 mm
00:50 15.5 °C 8.5 °C 1016.8 hPa NE 9.7 km/h 24.5 km/h 63% 0 mm
00:52 15.6 °C 8.6 °C 1016.8 hPa NE 13.4 km/h 24.5 km/h 63% 0 mm
00:53 15.6 °C 8.6 °C 1016.8 hPa NE 11.1 km/h 24.5 km/h 63% 0 mm
00:54 15.6 °C 8.6 °C 1016.8 hPa NE 12.2 km/h 24.5 km/h 63% 0 mm
00:55 15.6 °C 8.6 °C 1016.8 hPa NE 11.1 km/h 24.5 km/h 63% 0 mm
00:57 15.7 °C 8.4 °C 1016.8 hPa NE 9.7 km/h 24.5 km/h 62% 0 mm
00:59 15.7 °C 8.4 °C 1016.8 hPa NE 9.7 km/h 24.5 km/h 62% 0 mm
01:01 15.7 °C 8.4 °C 1016.8 hPa NNE 6.1 km/h 20.9 km/h 62% 0 mm
01:03 15.7 °C 8.4 °C 1016.8 hPa NE 11.1 km/h 20.9 km/h 62% 0 mm
01:04 15.7 °C 8.4 °C 1016.8 hPa NE 12.2 km/h 20.9 km/h 62% 0 mm
01:05 15.8 °C 8.5 °C 1016.8 hPa NE 9.7 km/h 20.9 km/h 62% 0 mm
01:06 15.8 °C 8.5 °C 1016.8 hPa NE 9.7 km/h 20.9 km/h 62% 0 mm
01:08 15.8 °C 8.5 °C 1016.8 hPa NE 12.2 km/h 20.9 km/h 62% 0 mm
01:10 15.8 °C 8.5 °C 1016.8 hPa NE 12.2 km/h 23.3 km/h 62% 0 mm
01:11 15.8 °C 8.5 °C 1016.8 hPa NE 7.2 km/h 23.3 km/h 62% 0 mm
01:13 15.8 °C 8.5 °C 1016.8 hPa NE 12.2 km/h 23.3 km/h 62% 0 mm
01:15 15.8 °C 8.3 °C 1016.8 hPa NE 15.8 km/h 23.3 km/h 61% 0 mm
01:16 15.8 °C 8.3 °C 1016.5 hPa NE 12.2 km/h 23.3 km/h 61% 0 mm
01:18 15.8 °C 8.3 °C 1016.5 hPa NE 12.2 km/h 23.3 km/h 61% 0 mm
01:20 15.8 °C 8.3 °C 1016.5 hPa NE 11.1 km/h 23.3 km/h 61% 0 mm
01:21 15.8 °C 8.3 °C 1016.5 hPa NE 11.1 km/h 23.3 km/h 61% 0 mm
01:24 15.7 °C 8.2 °C 1016.5 hPa NE 15.8 km/h 23.3 km/h 61% 0 mm
01:25 15.7 °C 8.2 °C 1016.5 hPa NE 15.8 km/h 23.3 km/h 61% 0 mm
01:26 15.7 °C 8.2 °C 1016.5 hPa NE 7.2 km/h 23.3 km/h 61% 0 mm
01:27 15.7 °C 8.2 °C 1016.5 hPa NE 12.2 km/h 23.3 km/h 61% 0 mm
01:30 15.7 °C 8.2 °C 1016.5 hPa NE 8.7 km/h 23.3 km/h 61% 0 mm
01:31 15.7 °C 8.2 °C 1016.5 hPa NE 6.1 km/h 23.3 km/h 61% 0 mm
01:33 15.6 °C 8.1 °C 1016.5 hPa ENE 7.2 km/h 23.3 km/h 61% 0 mm
01:35 15.6 °C 8.1 °C 1016.5 hPa ENE 11.1 km/h 23.3 km/h 61% 0 mm
01:36 15.6 °C 8.1 °C 1016.5 hPa ENE 9.7 km/h 23.3 km/h 61% 0 mm
01:38 15.6 °C 8.1 °C 1016.5 hPa ENE 12.2 km/h 23.3 km/h 61% 0 mm
01:40 15.7 °C 8.2 °C 1016.5 hPa NE 11.1 km/h 23.3 km/h 61% 0 mm
01:41 15.7 °C 8.2 °C 1016.1 hPa NE 14.8 km/h 23.3 km/h 61% 0 mm
01:43 15.7 °C 8.2 °C 1016.1 hPa NE 12.2 km/h 23.3 km/h 61% 0 mm
01:45 15.8 °C 8.3 °C 1016.1 hPa ENE 12.2 km/h 23.3 km/h 61% 0 mm
01:46 15.7 °C 8.2 °C 1016.5 hPa ENE 8.7 km/h 23.3 km/h 61% 0 mm
01:47 15.7 °C 8.2 °C 1016.1 hPa ENE 11.1 km/h 23.3 km/h 61% 0 mm
01:49 15.7 °C 7.9 °C 1016.1 hPa ENE 13.4 km/h 23.3 km/h 60% 0 mm
01:50 15.8 °C 8.3 °C 1016.1 hPa ENE 12.2 km/h 21.9 km/h 61% 0 mm
01:51 15.8 °C 8.3 °C 1016.1 hPa ENE 7.2 km/h 21.9 km/h 61% 0 mm
01:52 15.8 °C 8.1 °C 1016.1 hPa ENE 9.7 km/h 21.9 km/h 60% 0 mm
01:54 15.8 °C 8.3 °C 1016.1 hPa ENE 12.2 km/h 21.9 km/h 61% 0 mm
01:55 15.9 °C 8.1 °C 1016.1 hPa NE 9.7 km/h 21.9 km/h 60% 0 mm
01:56 15.8 °C 8.3 °C 1016.1 hPa NE 9.7 km/h 21.9 km/h 61% 0 mm
01:57 15.9 °C 8.1 °C 1016.1 hPa NE 11.1 km/h 21.9 km/h 60% 0 mm
02:00 15.9 °C 8.1 °C 1016.1 hPa NE 12.2 km/h 21.9 km/h 60% 0 mm
02:01 15.9 °C 8.1 °C 1016.1 hPa NE 11.1 km/h 19.5 km/h 60% 0 mm
02:03 15.9 °C 8.1 °C 1016.1 hPa NE 5 km/h 19.5 km/h 60% 0 mm
02:05 15.9 °C 8.1 °C 1016.1 hPa NE 8.7 km/h 18.3 km/h 60% 0 mm
02:06 15.9 °C 8.1 °C 1016.1 hPa NE 7.2 km/h 18.3 km/h 60% 0 mm
02:08 15.9 °C 8.1 °C 1016.1 hPa NE 8.7 km/h 18.3 km/h 60% 0 mm
02:11 15.9 °C 8.1 °C 1015.8 hPa ENE 7.2 km/h 18.3 km/h 60% 0 mm
02:13 15.9 °C 8.1 °C 1016.1 hPa ENE 5 km/h 18.3 km/h 60% 0 mm
02:16 15.8 °C 8.1 °C 1015.8 hPa ENE 5 km/h 19.5 km/h 60% 0 mm
02:17 15.8 °C 8.1 °C 1015.8 hPa ENE 5 km/h 19.5 km/h 60% 0 mm
02:18 15.8 °C 8.1 °C 1015.8 hPa ENE 7.2 km/h 19.5 km/h 60% 0 mm
02:21 15.8 °C 8.3 °C 1015.8 hPa ENE 9.7 km/h 19.5 km/h 61% 0 mm
02:22 15.7 °C 7.9 °C 1015.8 hPa NE 8.7 km/h 19.5 km/h 60% 0 mm
02:24 15.7 °C 7.9 °C 1015.8 hPa NE 8.7 km/h 19.5 km/h 60% 0 mm
02:26 15.7 °C 8.2 °C 1015.5 hPa NE 9.7 km/h 17.2 km/h 61% 0 mm
02:28 15.7 °C 7.9 °C 1015.8 hPa NE 7.2 km/h 17.2 km/h 60% 0 mm
02:29 15.6 °C 8.1 °C 1015.8 hPa NE 9.7 km/h 17.2 km/h 61% 0 mm
02:31 15.5 °C 8 °C 1015.8 hPa NE 5 km/h 15.8 km/h 61% 0 mm
02:33 15.5 °C 8 °C 1015.8 hPa NE 7.2 km/h 15.8 km/h 61% 0 mm
02:34 15.5 °C 8 °C 1015.8 hPa NE 3.5 km/h 15.8 km/h 61% 0 mm
02:36 15.4 °C 7.9 °C 1015.8 hPa NE 7.2 km/h 15.8 km/h 61% 0 mm
02:38 15.4 °C 7.9 °C 1015.8 hPa NE 2.6 km/h 15.8 km/h 61% 0 mm
02:39 15.3 °C 7.8 °C 1015.8 hPa NE 3.5 km/h 13.4 km/h 61% 0 mm
02:41 15.3 °C 7.8 °C 1015.5 hPa NE 3.5 km/h 11.1 km/h 61% 0 mm
02:43 15.3 °C 7.8 °C 1015.5 hPa NE 5 km/h 11.1 km/h 61% 0 mm
02:44 15.2 °C 7.7 °C 1015.5 hPa NE 2.6 km/h 11.1 km/h 61% 0 mm
02:46 15.2 °C 7.7 °C 1015.5 hPa NE 2.6 km/h 11.1 km/h 61% 0 mm
02:48 15.2 °C 7.7 °C 1015.5 hPa NE 2.6 km/h 11.1 km/h 61% 0 mm
02:50 15.1 °C 7.9 °C 1015.5 hPa NE 6.1 km/h 11.1 km/h 62% 0 mm
02:51 15.1 °C 7.9 °C 1015.5 hPa NE 3.5 km/h 11.1 km/h 62% 0 mm
02:53 15 °C 7.8 °C 1015.5 hPa NE 1.1 km/h 8.7 km/h 62% 0 mm
02:55 15 °C 7.8 °C 1015.5 hPa NE 1.1 km/h 8.7 km/h 62% 0 mm
02:57 15 °C 7.8 °C 1015.5 hPa Calm   8.7 km/h 62% 0 mm
02:58 14.9 °C 7.7 °C 1015.5 hPa NE 2.6 km/h 8.7 km/h 62% 0 mm
03:00 14.9 °C 7.7 °C 1015.5 hPa NNE 1.1 km/h 6.1 km/h 62% 0 mm
03:02 14.8 °C 7.6 °C 1015.5 hPa Calm   5 km/h 62% 0 mm
03:03 14.7 °C 7.5 °C 1015.5 hPa Calm   5 km/h 62% 0 mm
03:05 14.7 °C 7.5 °C 1015.5 hPa NW 1.1 km/h 5 km/h 62% 0 mm
03:07 14.7 °C 7.7 °C 1015.5 hPa WNW 1.1 km/h 5 km/h 63% 0 mm
03:09 14.6 °C 7.7 °C 1015.5 hPa NW 2.6 km/h 5 km/h 63% 0 mm
03:10 14.5 °C 7.6 °C 1015.5 hPa WNW 1.1 km/h 5 km/h 63% 0 mm
03:13 14.5 °C 7.6 °C 1015.5 hPa Calm   5 km/h 63% 0 mm
03:14 14.4 °C 7.7 °C 1015.5 hPa WNW 1.1 km/h 5 km/h 64% 0 mm
03:15 14.4 °C 7.7 °C 1015.5 hPa West 1.1 km/h 5 km/h 64% 0 mm
03:18 14.4 °C 7.7 °C 1015.5 hPa Calm   5 km/h 64% 0 mm
03:20 14.4 °C 7.7 °C 1015.5 hPa Calm   5 km/h 64% 0 mm
03:23 14.4 °C 7.7 °C 1015.5 hPa Calm   3.5 km/h 64% 0 mm
03:25 14.4 °C 7.7 °C 1015.5 hPa North 1.1 km/h 3.5 km/h 64% 0 mm
03:26 14.3 °C 7.6 °C 1015.5 hPa North 1.1 km/h 3.5 km/h 64% 0 mm
03:28 14.4 °C 7.7 °C 1015.5 hPa NNW 1.1 km/h 5 km/h 64% 0 mm
03:30 14.4 °C 7.7 °C 1015.5 hPa Calm   5 km/h 64% 0 mm
03:31 14.4 °C 7.7 °C 1015.5 hPa Calm   5 km/h 64% 0 mm
03:33 14.4 °C 7.4 °C 1015.5 hPa WNW 1.1 km/h 5 km/h 63% 0 mm
03:35 14.4 °C 7.4 °C 1015.5 hPa WNW 1.1 km/h 5 km/h 63% 0 mm
03:36 14.4 °C 7.7 °C 1015.5 hPa Calm   5 km/h 64% 0 mm
03:38 14.4 °C 7.4 °C 1015.1 hPa NW 3.5 km/h 6.1 km/h 63% 0 mm
03:41 14.5 °C 7.3 °C 1015.1 hPa WNW 1.1 km/h 6.1 km/h 62% 0 mm
03:44 14.5 °C 7.6 °C 1015.1 hPa Calm   6.1 km/h 63% 0 mm
03:46 14.5 °C 7.6 °C 1015.1 hPa Calm   6.1 km/h 63% 0 mm
03:47 14.5 °C 7.6 °C 1015.1 hPa Calm   6.1 km/h 63% 0 mm
03:49 14.5 °C 7.6 °C 1015.1 hPa NW 1.1 km/h 6.1 km/h 63% 0 mm
03:52 14.5 °C 7.6 °C 1015.1 hPa NNE 1.1 km/h 3.5 km/h 63% 0 mm
03:54 14.4 °C 7.4 °C 1015.1 hPa NNE 2.6 km/h 5 km/h 63% 0 mm
03:57 14.5 °C 7.3 °C 1015.1 hPa NNW 3.5 km/h 7.2 km/h 62% 0 mm
03:58 14.6 °C 7.2 °C 1015.5 hPa NNW 6.1 km/h 8.7 km/h 61% 0 mm
03:59 14.7 °C 7.3 °C 1015.5 hPa NW 3.5 km/h 9.7 km/h 61% 0 mm
04:02 14.9 °C 7.2 °C 1015.5 hPa Calm   9.7 km/h 60% 0 mm
04:03 14.9 °C 7.2 °C 1015.5 hPa WNW 1.1 km/h 9.7 km/h 60% 0 mm
04:04 14.9 °C 7.2 °C 1015.5 hPa WNW 2.6 km/h 9.7 km/h 60% 0 mm
04:07 15.1 °C 7.4 °C 1015.5 hPa NW 3.5 km/h 9.7 km/h 60% 0 mm
04:08 15.1 °C 7.2 °C 1015.5 hPa NW 2.6 km/h 9.7 km/h 59% 0 mm
04:09 15.1 °C 7.2 °C 1015.5 hPa NW 2.6 km/h 6.1 km/h 59% 0 mm
04:12 15.2 °C 7.5 °C 1015.1 hPa NNW 1.1 km/h 6.1 km/h 60% 0 mm
04:14 15.2 °C 7.5 °C 1015.5 hPa NNW 1.1 km/h 6.1 km/h 60% 0 mm
04:18 15.2 °C 7.5 °C 1015.5 hPa Calm   5 km/h 60% 0 mm
04:19 15.2 °C 7.5 °C 1015.5 hPa Calm   5 km/h 60% 0 mm
04:23 15.1 °C 7.6 °C 1015.1 hPa Calm   2.6 km/h 61% 0 mm
04:25 15 °C 7.6 °C 1015.1 hPa Calm   1.1 km/h 61% 0 mm
04:28 14.9 °C 7.4 °C 1015.1 hPa Calm   2.6 km/h 61% 0 mm
04:30 14.8 °C 7.6 °C 1015.1 hPa Calm   2.6 km/h 62% 0 mm
04:31 14.8 °C 7.6 °C 1015.1 hPa Calm   2.6 km/h 62% 0 mm
04:34 14.7 °C 7.7 °C 1015.1 hPa NW 2.6 km/h 3.5 km/h 63% 0 mm
04:35 14.6 °C 7.7 °C 1015.1 hPa Calm   3.5 km/h 63% 0 mm
04:37 14.5 °C 7.6 °C 1015.1 hPa Calm   3.5 km/h 63% 0 mm
04:39 14.4 °C 7.7 °C 1015.1 hPa Calm   3.5 km/h 64% 0 mm
04:40 14.4 °C 7.7 °C 1015.1 hPa Calm   3.5 km/h 64% 0 mm
04:42 14.3 °C 7.8 °C 1015.1 hPa Calm   3.5 km/h 65% 0 mm
04:44 14.2 °C 7.7 °C 1015.1 hPa Calm   2.6 km/h 65% 0 mm
04:45 14.1 °C 7.6 °C 1015.1 hPa Calm   1.1 km/h 65% 0 mm
04:48 14 °C 7.8 °C 1015.1 hPa Calm     66% 0 mm
04:49 14 °C 7.8 °C 1015.1 hPa Calm     66% 0 mm
04:50 13.9 °C 7.7 °C 1015.1 hPa Calm     66% 0 mm
04:53 13.9 °C 7.4 °C 1015.1 hPa Calm     65% 0 mm
04:54 13.9 °C 7.4 °C 1015.1 hPa Calm     65% 0 mm
04:55 13.8 °C 7.3 °C 1015.1 hPa Calm     65% 0 mm
04:58 13.8 °C 7.6 °C 1015.1 hPa Calm     66% 0 mm
04:59 13.8 °C 7.6 °C 1015.1 hPa Calm     66% 0 mm
05:01 13.8 °C 7.6 °C 1015.5 hPa Calm     66% 0 mm
05:04 13.7 °C 7.7 °C 1015.5 hPa Calm     67% 0 mm
05:06 13.7 °C 7.9 °C 1015.5 hPa Calm     68% 0 mm
05:09 13.6 °C 7.8 °C 1015.5 hPa Calm     68% 0 mm
05:11 13.6 °C 7.8 °C 1015.5 hPa Calm     68% 0 mm
05:14 13.5 °C 7.9 °C 1015.5 hPa Calm     69% 0 mm
05:17 13.5 °C 7.9 °C 1015.5 hPa Calm     69% 0 mm
05:19 13.5 °C 7.9 °C 1015.5 hPa Calm     69% 0 mm
05:22 13.5 °C 7.9 °C 1015.8 hPa Calm     69% 0 mm
05:24 13.4 °C 7.8 °C 1015.8 hPa Calm     69% 0 mm
05:25 13.4 °C 7.8 °C 1015.5 hPa Calm     69% 0 mm
05:27 13.4 °C 7.8 °C 1015.8 hPa Calm     69% 0 mm
05:29 13.4 °C 7.8 °C 1015.5 hPa Calm     69% 0 mm
05:30 13.4 °C 7.8 °C 1015.5 hPa Calm     69% 0 mm
05:32 13.3 °C 7.8 °C 1015.5 hPa Calm     69% 0 mm
05:35 13.3 °C 7.8 °C 1015.5 hPa Calm     69% 0 mm
05:36 13.3 °C 7.8 °C 1015.5 hPa Calm     69% 0 mm
05:38 13.3 °C 7.8 °C 1015.5 hPa Calm     69% 0 mm
05:41 13.3 °C 7.8 °C 1015.5 hPa Calm     69% 0 mm
05:43 13.3 °C 7.8 °C 1015.5 hPa Calm     69% 0 mm
05:46 13.3 °C 7.8 °C 1015.5 hPa Calm     69% 0 mm
05:47 13.2 °C 7.7 °C 1015.5 hPa Calm     69% 0 mm
05:48 13.2 °C 7.7 °C 1015.5 hPa Calm     69% 0 mm
05:51 13.2 °C 7.7 °C 1015.5 hPa Calm     69% 0 mm
05:52 13.2 °C 7.7 °C 1015.5 hPa Calm     69% 0 mm
05:53 13.2 °C 7.7 °C 1015.5 hPa Calm     69% 0 mm
05:56 13.2 °C 7.7 °C 1015.5 hPa Calm     69% 0 mm
05:57 13.2 °C 7.7 °C 1015.5 hPa Calm     69% 0 mm
05:58 13.2 °C 7.9 °C 1015.5 hPa Calm     70% 0 mm
06:02 13.2 °C 7.9 °C 1015.5 hPa Calm     70% 0 mm
06:03 13.2 °C 7.9 °C 1015.5 hPa Calm     70% 0 mm
06:07 13.2 °C 8.1 °C 1015.5 hPa Calm     71% 0 mm
06:08 13.1 °C 8 °C 1015.5 hPa Calm     71% 0 mm
06:12 13.1 °C 8.2 °C 1015.1 hPa Calm     72% 0 mm
06:14 13.1 °C 8.2 °C 1015.1 hPa Calm     72% 0 mm
06:17 13.1 °C 8.3 °C 1015.1 hPa Calm     73% 0 mm
06:18 13.1 °C 8.3 °C 1015.1 hPa Calm     73% 0 mm
06:19 13.1 °C 8.3 °C 1015.1 hPa Calm     73% 0 mm
06:22 12.9 °C 8.4 °C 1014.8 hPa Calm     74% 0 mm
06:23 12.9 °C 8.4 °C 1015.1 hPa Calm     74% 0 mm
06:24 12.9 °C 8.4 °C 1015.1 hPa Calm     74% 0 mm
06:27 12.9 °C 8.4 °C 1015.1 hPa Calm     74% 0 mm
06:28 12.8 °C 8.3 °C 1015.1 hPa Calm     74% 0 mm
06:29 12.8 °C 8.5 °C 1014.8 hPa Calm     75% 0 mm
06:32 12.8 °C 8.7 °C 1014.8 hPa Calm     76% 0 mm
06:33 12.7 °C 8.6 °C 1015.1 hPa Calm     76% 0 mm
06:35 12.7 °C 8.6 °C 1015.1 hPa Calm     76% 0 mm
06:37 12.7 °C 8.6 °C 1014.8 hPa Calm     76% 0 mm
06:39 12.7 °C 8.6 °C 1014.8 hPa Calm     76% 0 mm
06:40 12.7 °C 8.6 °C 1014.8 hPa Calm     76% 0 mm
06:42 12.7 °C 8.8 °C 1014.8 hPa Calm     77% 0 mm
06:44 12.7 °C 8.8 °C 1014.8 hPa Calm     77% 0 mm
06:45 12.7 °C 8.8 °C 1014.8 hPa Calm     77% 0 mm
06:47 12.8 °C 8.9 °C 1014.8 hPa Calm     77% 0 mm
06:49 12.8 °C 8.9 °C 1015.1 hPa Calm     77% 0 mm
06:51 12.8 °C 8.9 °C 1015.1 hPa Calm     77% 0 mm
06:53 12.8 °C 9.1 °C 1015.1 hPa Calm     78% 0 mm
06:54 12.8 °C 9.1 °C 1015.1 hPa Calm     78% 0 mm
06:56 12.9 °C 9.2 °C 1015.1 hPa Calm     78% 0 mm
06:58 12.9 °C 9.4 °C 1015.1 hPa Calm     79% 0 mm
07:01 12.9 °C 9.4 °C 1015.1 hPa Calm     79% 0 mm
07:03 12.9 °C 9.4 °C 1015.1 hPa Calm     79% 0 mm
07:06 12.9 °C 9.4 °C 1015.1 hPa Calm     79% 0 mm
07:08 12.9 °C 9.4 °C 1015.1 hPa Calm   1.1 km/h 79% 0 mm
07:11 12.9 °C 9.4 °C 1015.5 hPa Calm   1.1 km/h 79% 0 mm
07:13 13.1 °C 9.5 °C 1015.1 hPa NW 2.6 km/h 5 km/h 79% 0 mm
07:17 13.1 °C 9.5 °C 1015.5 hPa NW 2.6 km/h 5 km/h 79% 0 mm
07:18 13.1 °C 9.6 °C 1015.5 hPa NW 2.6 km/h 5 km/h 79% 0 mm
07:22 13.2 °C 9.7 °C 1015.5 hPa NW 1.1 km/h 5 km/h 79% 0 mm
07:24 13.3 °C 9.8 °C 1015.1 hPa NW 1.1 km/h 5 km/h 79% 0 mm
07:27 13.5 °C 9.8 °C 1015.5 hPa NNW 2.6 km/h 7.2 km/h 78% 0 mm
07:29 13.5 °C 9.8 °C 1015.5 hPa North 2.6 km/h 7.2 km/h 78% 0 mm
07:32 13.7 °C 9.8 °C 1015.1 hPa Calm   7.2 km/h 77% 0 mm
07:34 13.9 °C 9.9 °C 1015.1 hPa North 2.6 km/h 7.2 km/h 77% 0 mm
07:37 14 °C 9.8 °C 1015.1 hPa Calm   7.2 km/h 76% 0 mm
07:38 14 °C 9.8 °C 1015.1 hPa NNW 1.1 km/h 7.2 km/h 76% 0 mm
07:39 14.1 °C 9.9 °C 1015.1 hPa NNW 2.6 km/h 7.2 km/h 76% 0 mm
07:42 14.3 °C 10.2 °C 1015.1 hPa NNW 2.6 km/h 6.1 km/h 76% 0 mm
07:43 14.3 °C 9.9 °C 1015.1 hPa North 3.5 km/h 6.1 km/h 75% 0 mm
07:45 14.4 °C 10.1 °C 1015.5 hPa NNE 2.6 km/h 7.2 km/h 75% 0 mm
07:47 14.6 °C 10 °C 1015.1 hPa NNE 1.1 km/h 7.2 km/h 74% 0 mm
07:48 14.6 °C 10 °C 1015.1 hPa NNE 1.1 km/h 7.2 km/h 74% 0 mm
07:50 14.7 °C 10.1 °C 1015.1 hPa NNE 2.6 km/h 7.2 km/h 74% 0 mm
07:53 14.9 °C 10.3 °C 1015.1 hPa NNE 3.5 km/h 7.2 km/h 74% 0 mm
07:54 15 °C 10.4 °C 1015.1 hPa North 2.6 km/h 7.2 km/h 74% 0 mm
07:55 15 °C 10.2 °C 1015.1 hPa North 2.6 km/h 7.2 km/h 73% 0 mm
07:58 15.2 °C 10.4 °C 1015.1 hPa North 5 km/h 7.2 km/h 73% 0 mm
07:59 15.3 °C 10.5 °C 1015.5 hPa North 3.5 km/h 7.2 km/h 73% 0 mm
08:01 15.4 °C 10.6 °C 1015.5 hPa Calm   7.2 km/h 73% 0 mm
08:03 15.6 °C 10.6 °C 1015.5 hPa North 5 km/h 7.2 km/h 72% 0 mm
08:04 15.7 °C 10.4 °C 1015.5 hPa North 3.5 km/h 7.2 km/h 71% 0 mm
08:06 15.8 °C 10.6 °C 1015.5 hPa North 2.6 km/h 7.2 km/h 71% 0 mm
08:08 15.9 °C 10.6 °C 1015.5 hPa North 3.5 km/h 7.2 km/h 71% 0 mm
08:09 16 °C 10.5 °C 1015.5 hPa North 1.1 km/h 7.2 km/h 70% 0 mm
08:11 16 °C 10.5 °C 1015.5 hPa North 2.6 km/h 7.2 km/h 70% 0 mm
08:14 16.1 °C 10.6 °C 1015.5 hPa North 3.5 km/h 8.7 km/h 70% 0 mm
08:17 16.2 °C 10.5 °C 1015.5 hPa NNE 1.1 km/h 8.7 km/h 69% 0 mm
08:19 16.3 °C 10.6 °C 1015.1 hPa NNE 1.1 km/h 8.7 km/h 69% 0 mm
08:20 16.4 °C 10.7 °C 1015.1 hPa NNE 2.6 km/h 8.7 km/h 69% 0 mm
08:22 16.4 °C 10.7 °C 1015.1 hPa NNE 2.6 km/h 8.7 km/h 69% 0 mm
08:24 16.6 °C 10.7 °C 1015.1 hPa NE 3.5 km/h 7.2 km/h 68% 0 mm
08:25 16.6 °C 10.7 °C 1014.8 hPa NE 2.6 km/h 7.2 km/h 68% 0 mm
08:27 16.7 °C 10.7 °C 1015.1 hPa NE 1.1 km/h 7.2 km/h 68% 0 mm
08:29 16.8 °C 10.8 °C 1015.1 hPa NNE 2.6 km/h 7.2 km/h 68% 0 mm
08:30 16.8 °C 10.8 °C 1015.1 hPa NNE 1.1 km/h 7.2 km/h 68% 0 mm
08:32 16.9 °C 10.8 °C 1015.1 hPa North 5 km/h 7.2 km/h 67% 0 mm
08:34 17.1 °C 10.9 °C 1015.1 hPa North 2.6 km/h 7.2 km/h 67% 0 mm
08:35 17.1 °C 10.9 °C 1015.1 hPa North 2.6 km/h 7.2 km/h 67% 0 mm
08:37 17.2 °C 11 °C 1015.1 hPa North 3.5 km/h 7.2 km/h 67% 0 mm
08:39 17.2 °C 10.8 °C 1014.8 hPa NNE 5 km/h 9.7 km/h 66% 0 mm
08:40 17.2 °C 10.8 °C 1015.1 hPa NNE 6.1 km/h 9.7 km/h 66% 0 mm
08:42 17.3 °C 10.9 °C 1015.1 hPa NNE 3.5 km/h 9.7 km/h 66% 0 mm
08:44 17.4 °C 10.8 °C 1015.1 hPa NNE 3.5 km/h 9.7 km/h 65% 0 mm
08:45 17.4 °C 10.8 °C 1015.1 hPa NNE 3.5 km/h 9.7 km/h 65% 0 mm
08:47 17.6 °C 10.9 °C 1015.1 hPa NNE 6.1 km/h 9.7 km/h 65% 0 mm
08:50 17.7 °C 11.3 °C 1014.8 hPa NE 6.1 km/h 9.7 km/h 66% 0 mm
08:53 18.1 °C 11.4 °C 1014.8 hPa NE 6.1 km/h 9.7 km/h 65% 0 mm
08:56 18.1 °C 11.2 °C 1014.8 hPa NE 6.1 km/h 13.4 km/h 64% 0 mm
08:58 18.2 °C 11.3 °C 1014.8 hPa NE 3.5 km/h 13.4 km/h 64% 0 mm
09:01 18.5 °C 11.6 °C 1014.8 hPa NNE 6.1 km/h 13.4 km/h 64% 0 mm
09:03 18.7 °C 11.6 °C 1014.8 hPa NE 6.1 km/h 13.4 km/h 63% 0 mm
09:06 19 °C 11.6 °C 1014.8 hPa NE 6.1 km/h 15.8 km/h 62% 0 mm
09:08 19.1 °C 11.7 °C 1014.8 hPa NNE 7.2 km/h 15.8 km/h 62% 0 mm
09:11 19.5 °C 12.1 °C 1014.8 hPa NNE 9.7 km/h 15.8 km/h 62% 0 mm
09:13 19.6 °C 12.1 °C 1014.8 hPa NNE 6.1 km/h 15.8 km/h 62% 0 mm
09:16 19.9 °C 11.7 °C 1014.8 hPa NNE 7.2 km/h 17.2 km/h 59% 0 mm
09:17 19.9 °C 11.7 °C 1014.8 hPa NNE 7.2 km/h 17.2 km/h 59% 0 mm
09:18 19.9 °C 11.7 °C 1014.8 hPa NE 9.7 km/h 17.2 km/h 59% 0 mm
09:21 20 °C 11.7 °C 1014.8 hPa NE 6.1 km/h 17.2 km/h 59% 0 mm
09:22 20 °C 11.7 °C 1014.8 hPa NE 6.1 km/h 17.2 km/h 59% 0 mm
09:23 20.1 °C 11.8 °C 1014.8 hPa NE 8.7 km/h 17.2 km/h 59% 0 mm
09:26 20.2 °C 11.9 °C 1014.8 hPa NE 6.1 km/h 18.3 km/h 59% 0 mm
09:27 20.3 °C 12 °C 1014.8 hPa NE 8.7 km/h 18.3 km/h 59% 0 mm
09:28 20.3 °C 11.8 °C 1014.8 hPa NE 7.2 km/h 18.3 km/h 58% 0 mm
09:32 20.2 °C 11.7 °C 1014.4 hPa NE 6.1 km/h 18.3 km/h 58% 0 mm
09:34 20.1 °C 11.6 °C 1014.8 hPa NE 8.7 km/h 18.3 km/h 58% 0 mm
09:37 20 °C 11.7 °C 1014.4 hPa NE 9.7 km/h 14.8 km/h 59% 0 mm
09:38 20 °C 11.7 °C 1014.4 hPa NE 9.7 km/h 14.8 km/h 59% 0 mm
09:39 20 °C 11.5 °C 1014.4 hPa NE 7.2 km/h 14.8 km/h 58% 0 mm
09:42 19.9 °C 11.7 °C 1014.4 hPa NNE 8.7 km/h 17.2 km/h 59% 0 mm
09:43 19.9 °C 11.7 °C 1014.4 hPa NNE 8.7 km/h 17.2 km/h 59% 0 mm
09:44 19.9 °C 11.4 °C 1014.4 hPa NE 9.7 km/h 17.2 km/h 58% 0 mm
09:47 19.9 °C 11.9 °C 1014.4 hPa NNE 8.7 km/h 17.2 km/h 60% 0 mm
09:48 19.9 °C 11.7 °C 1014.8 hPa NNE 8.7 km/h 17.2 km/h 59% 0 mm
09:49 19.9 °C 11.7 °C 1014.4 hPa NE 8.7 km/h 17.2 km/h 59% 0 mm
09:52 20 °C 11.7 °C 1014.4 hPa NNE 3.5 km/h 14.8 km/h 59% 0 mm
09:53 20 °C 12 °C 1014.4 hPa NNE 7.2 km/h 14.8 km/h 60% 0 mm
09:54 20 °C 12 °C 1014.4 hPa NNE 2.6 km/h 14.8 km/h 60% 0 mm
09:58 20 °C 12 °C 1014.4 hPa NNE 5 km/h 14.8 km/h 60% 0 mm
09:59 20.1 °C 12.1 °C 1014.4 hPa NNE 5 km/h 13.4 km/h 60% 0 mm
10:03 20.2 °C 12.2 °C 1014.4 hPa NNE 8.7 km/h 13.4 km/h 60% 0 mm
10:04 20.2 °C 11.9 °C 1014.4 hPa NNE 8.7 km/h 13.4 km/h 59% 0 mm
10:08 20.3 °C 12 °C 1014.4 hPa NNE 9.7 km/h 15.8 km/h 59% 0 mm
10:09 20.3 °C 12 °C 1014.1 hPa NE 5 km/h 15.8 km/h 59% 0 mm
10:10 20.4 °C 12.1 °C 1014.1 hPa NE 5 km/h 15.8 km/h 59% 0 mm
10:13 20.4 °C 11.8 °C 1014.4 hPa NE 7.2 km/h 15.8 km/h 58% 0 mm
10:14 20.4 °C 11.8 °C 1014.4 hPa NE 2.6 km/h 15.8 km/h 58% 0 mm
10:15 20.4 °C 11.8 °C 1014.4 hPa ENE 5 km/h 15.8 km/h 58% 0 mm
10:20 20.4 °C 11.8 °C 1014.1 hPa NE 9.7 km/h 13.4 km/h 58% 0 mm
10:21 20.4 °C 11.8 °C 1014.1 hPa NE 6.1 km/h 13.4 km/h 58% 0 mm
10:25 20.5 °C 11.9 °C 1014.1 hPa NE 3.5 km/h 13.4 km/h 58% 0 mm
10:26 20.6 °C 12.1 °C 1013.8 hPa NE 5 km/h 13.4 km/h 58% 0 mm
10:30 20.8 °C 12.2 °C 1014.1 hPa ENE 7.2 km/h 13.4 km/h 58% 0 mm
10:31 20.9 °C 12.3 °C 1014.1 hPa ENE 5 km/h 13.4 km/h 58% 0 mm
10:35 21.3 °C 12.4 °C 1013.8 hPa NNE 6.1 km/h 13.4 km/h 57% 0 mm
10:36 21.4 °C 12.5 °C 1013.8 hPa NNE 5 km/h 13.4 km/h 57% 0 mm
10:40 21.8 °C 12.6 °C 1014.1 hPa NNE 8.7 km/h 13.4 km/h 56% 0 mm
10:41 21.8 °C 12.4 °C 1014.1 hPa NNE 5 km/h 13.4 km/h 55% 0 mm
10:42 21.8 °C 12.4 °C 1013.8 hPa NNE 5 km/h 13.4 km/h 55% 0 mm
10:46 21.9 °C 12.2 °C 1013.8 hPa NNE 5 km/h 13.4 km/h 54% 0 mm
10:47 21.9 °C 12.2 °C 1013.8 hPa NNE 3.5 km/h 13.4 km/h 54% 0 mm
10:51 22.1 °C 12.9 °C 1013.8 hPa North 2.6 km/h 11.1 km/h 56% 0 mm
10:52 22.2 °C 12.7 °C 1013.8 hPa North 6.1 km/h 11.1 km/h 55% 0 mm
10:56 22.2 °C 12.8 °C 1013.8 hPa NNE 6.1 km/h 12.2 km/h 55% 0 mm
10:57 22.2 °C 12.5 °C 1013.8 hPa NE 11.1 km/h 14.8 km/h 54% 0 mm
11:01 22.2 °C 12.2 °C 1013.8 hPa NE 5 km/h 14.8 km/h 53% 0 mm
11:02 22.2 °C 12.5 °C 1013.8 hPa NE 7.2 km/h 14.8 km/h 54% 0 mm
11:06 22.2 °C 12.4 °C 1013.8 hPa NE 7.2 km/h 17.2 km/h 54% 0 mm
11:07 22.2 °C 12.4 °C 1013.8 hPa NE 2.6 km/h 17.2 km/h 54% 0 mm
11:11 22.3 °C 12.6 °C 1013.8 hPa NE 7.2 km/h 17.2 km/h 54% 0 mm
11:12 22.4 °C 12.7 °C 1013.8 hPa NE 6.1 km/h 17.2 km/h 54% 0 mm
11:16 22.7 °C 12.7 °C 1013.4 hPa NE 6.1 km/h 15.8 km/h 53% 0 mm
11:17 22.8 °C 12.8 °C 1013.4 hPa NE 3.5 km/h 15.8 km/h 53% 0 mm
11:22 23.1 °C 12.9 °C 1013.4 hPa NE 9.7 km/h 21.9 km/h 53% 0 mm
11:27 23.1 °C 12.7 °C 1013.4 hPa ENE 15.8 km/h 24.5 km/h 52% 0 mm
11:28 23.1 °C 12.2 °C 1013.4 hPa NE 8.7 km/h 24.5 km/h 50% 0 mm
11:32 23.1 °C 12.7 °C 1013.4 hPa NE 14.8 km/h 24.5 km/h 52% 0 mm
11:33 23.1 °C 12.7 °C 1013.4 hPa ENE 13.4 km/h 24.5 km/h 52% 0 mm
11:37 23.3 °C 12.3 °C 1013.4 hPa ENE 7.2 km/h 24.5 km/h 50% 0 mm
11:38 23.2 °C 12.2 °C 1013.4 hPa ENE 7.2 km/h 20.9 km/h 50% 0 mm
11:42 23.4 °C 12.7 °C 1013.1 hPa NE 12.2 km/h 19.5 km/h 51% 0 mm
11:43 23.4 °C 11.8 °C 1013.1 hPa NE 12.2 km/h 19.5 km/h 48% 0 mm
11:47 23.3 °C 12 °C 1013.1 hPa NE 6.1 km/h 19.5 km/h 49% 0 mm
11:48 23.4 °C 12.1 °C 1013.1 hPa NE 8.7 km/h 19.5 km/h 49% 0 mm
11:53 23.4 °C 12.1 °C 1013.1 hPa NNE 5 km/h 19.5 km/h 49% 0 mm
11:58 23.5 °C 11.9 °C 1013.1 hPa North 8.7 km/h 14.8 km/h 48% 0 mm
11:59 23.5 °C 11.9 °C 1013.1 hPa North 3.5 km/h 14.8 km/h 48% 0 mm
12:03 23.4 °C 12.1 °C 1013.1 hPa NNE 6.1 km/h 14.8 km/h 49% 0 mm
12:04 23.4 °C 11.8 °C 1013.1 hPa NNE 6.1 km/h 14.8 km/h 48% 0 mm
12:08 23.5 °C 11.9 °C 1013.1 hPa North 2.6 km/h 13.4 km/h 48% 0 mm
12:09 23.5 °C 11.9 °C 1013.1 hPa North 2.6 km/h 13.4 km/h 48% 0 mm
12:14 23.6 °C 12.3 °C 1012.8 hPa North 5 km/h 13.4 km/h 49% 0 mm
12:19 23.9 °C 12.3 °C 1012.8 hPa North 2.6 km/h 13.4 km/h 48% 0 mm
www.araratweather.com - Email: contact at araratweather.com
Data created with Cumulus & bmak
Click here to send mail.


ABOUT

Live weather data from Ararat, Victoria, Australia, 3377
Data uploaded from Cumulus every 5 minutes to Weather Underground.
This site then downloads the raw data for formatting and display.
Metric and imperial data can be displayed. Graphs and historical data available.
Includes Sun and Moon times and rain image live from BOM.

Check out Ararat Weather on Facebook, Twitter and Google +

Help support ongoing costs by checking out the ads





Follow @AraratWeather